Location: Street
(51.1247°N, 2.7429°W)
Time: 23:58:46
(UTC+00:00)

Vanguard 1 - All Passes

Search period start: 05 December 2020 00:00
Search period end: 15 December 2020 00:00
Orbit: 650 x 3833 km, 34.2° (Epoch: 05 December)

Date Brightness Start Highest point End Pass type
(mag) Time Alt. Az. Time Alt. Az. Time Alt. Az.
05 Dec - 03:47:18 10° S 03:49:21 12° SSE 03:51:41 10° SE visible
05 Dec - 06:03:34 10° SW 06:08:18 21° S 06:15:04 10° SE visible
05 Dec - 08:22:54 10° SW 08:28:24 18° SSW 08:35:57 10° SSE daylight
06 Dec - 04:06:57 10° SSW 04:09:43 14° SSE 04:13:04 10° SE visible
06 Dec - 06:24:14 10° SW 06:28:53 20° S 06:35:27 10° SE visible
06 Dec - 08:44:43 10° SW 08:49:07 14° SSW 08:54:39 10° S daylight
07 Dec - 04:27:02 10° SSW 04:30:09 16° SSE 04:34:01 10° SE visible
07 Dec - 06:45:06 10° SW 06:49:31 18° S 06:55:31 10° SSE visible
08 Dec - 04:47:23 10° SSW 04:50:38 16° S 04:54:43 10° SE visible
08 Dec - 07:06:16 10° SW 07:10:09 15° S 07:15:09 10° SSE visible
09 Dec - 05:07:58 10° SW 05:11:10 16° S 05:15:09 10° SE visible
09 Dec - 07:28:10 10° SW 07:30:49 12° SSW 07:33:55 10° S daylight
10 Dec - 03:11:33 10° S 03:12:42 11° SSE 03:13:56 10° SSE visible
10 Dec - 05:28:47 10° SW 05:31:43 14° S 05:35:17 10° SSE visible
11 Dec - 03:31:27 10° SSW 03:33:10 12° S 03:35:01 10° SSE visible
11 Dec - 05:50:03 10° SSW 05:52:18 12° S 05:54:54 10° SSE visible
12 Dec - 03:51:52 10° SSW 03:53:39 12° S 03:55:36 10° SSE visible
13 Dec - 04:12:43 10° SSW 04:14:09 11° S 04:15:42 10° SSE visible
